Location: B?ogocice
(50.2413°N, 20.2361°E)
Time: 04:27:56
(UTC+00:00)

ALOS - Pass Details

Date: 27 September 2024
Orbit: 670 x 673 km, 98.0° (Epoch: 04 October)

Event Time Altitude Azimuth Distance (km) Brightness Sun altitude
Rises 01:35:04 0° 13° (NNE) 3,030 6.3 -27.8°
Reaches altitude 10° 01:37:19 10° 14° (NNE) 2,111 5.4 -27.5°
Enters shadow 01:41:12 63° 11° (NNE) 750 2.5 -27.0°
